Orbital Elements at Epoch 2459200.5 (2020-Dec-17.0) TDB
Reference: JPL 13 (heliocentric ecliptic J2000)
Element | Value | Uncertainty (1-sigma) | Units |
e | .2356371159889653 | 5.9007e-08 | |
a | 2.135416879267464 | 1.3669e-08 | au |
q | 1.632233404402723 | 1.3529e-07 | au |
i | 4.847198555321892 | 4.8587e-06 | deg |
node | 51.66638551925929 | 3.7397e-05 | deg |
peri | 268.9974177900115 | 4.023e-05 | deg |
M | 346.6339925204216 | 2.2908e-05 | deg |
tp | 2459242.817658819585 (2021-Jan-28.31765882) | 7.2894e-05 | TDB |
period | 1139.783678733289 3.12 | 1.0944e-05 2.996e-08 | d yr |
n | .3158494078456096 | 3.0327e-09 | deg/d |
Q | 2.638600354132206 | 1.689e-08 | au |
|
| | Orbit Determination Parameters
Additional Information
|